Tracking 28895 objects as of 28-May-2024
HD Live streaming from Space Station
objects crossing your sky now

STARLINK-5953

Track STARLINK-5953 now!
10-day predictions
STARLINK-5953 is classified as:


NORAD ID: 56799
Int'l Code: 2023-078AJ
Perigee: 577.3 km
Apogee: 581.0 km
Inclination: 70.0 °
Period: 96.1 minutes
Semi major axis: 6950 km
RCS: Unknown
Launch date: May 31, 2023
Source: United States (US)
Launch site: AIR FORCE WESTERN TEST RANGE (AFWTR)
Your satellite tracking list
Your tracking list is empty




NASA's NSSDC Master Catalog

Two Line Element Set (TLE):
1 56799U 23078AJ  24149.18257589  .00003449  00000-0  29659-3 0  9995
2 56799  70.0009 184.4916 0002651 255.1967 104.8898 14.98348347 55500
Source of the keplerian elements: AFSPC